This is the latest recevied weather packets stored in our database for station/object KB9PVH-3. If no packets are shown the sender has not sent any weather packets the latest 10 day(s).
| Time | Temp. | Humidity | Pressure | Rain* | Wind** | Luminosity | Snow |
|---|---|---|---|---|---|---|---|
| 1777958944 | 10.56° C | 52% | 1005.3 hPa | 0 mm | - | - | - |
| 1777957895 | 11.11° C | 51% | 1004.6 hPa | 0 mm | - | - | - |
| 1777956844 | 11.67° C | 50% | 1003.9 hPa | 0 mm | - | - | - |
| 1777955794 | 12.22° C | 50% | 1003.8 hPa | 0 mm | - | - | - |
| 1777954748 | 12.78° C | 47% | 1003.7 hPa | 0 mm | - | - | - |
| 1777952644 | 13.33° C | 39% | 1003.3 hPa | 0 mm | - | - | - |
| 1777951594 | 13.89° C | 40% | 1003.1 hPa | 0 mm | - | - | - |
| 1777950544 | 14.44° C | 38% | 1002.7 hPa | 0 mm | - | - | - |
| 1777949494 | 15° C | 37% | 1002.3 hPa | 0 mm | - | - | - |
| 1777948447 | 15° C | 39% | 1001.9 hPa | 0 mm | - | - | - |
| 1777947393 | 15.56° C | 36% | 1001.1 hPa | 0 mm | - | - | - |
| 1777945297 | 16.67° C | 39% | 1000.5 hPa | 0 mm | - | - | - |
| 1777944244 | 17.22° C | 40% | 1000.4 hPa | 0 mm | - | - | - |
| 1777942148 | 18.89° C | 37% | 999.3 hPa | 0 mm | - | - | - |
| 1777941096 | 19.44° C | 39% | 999 hPa | 0 mm | - | - | - |
| 1777939113 | 22.22° C | 35% | 998.3 hPa | 0 mm | - | - | - |
| 1777938081 | 22.78° C | 35% | 998.4 hPa | 0 mm | - | - | - |
| 1777937013 | 23.89° C | 36% | 998.1 hPa | 0 mm | - | - | - |
| 1777935963 | 25° C | 34% | 998 hPa | 0 mm | - | - | - |
| 1777934915 | 25.56° C | 34% | 997.4 hPa | 0 mm | - | - | - |
| 1777933863 | 24.44° C | 34% | 997.4 hPa | 0 mm | - | - | - |
| 1777932817 | 25° C | 34% | 997.3 hPa | 0 mm | - | - | - |
| 1777931767 | 26.11° C | 32% | 997.5 hPa | 0 mm | - | - | - |
| 1777930717 | 25.56° C | 32% | 997.4 hPa | 0 mm | - | - | - |
| 1777929667 | 26.11° C | 32% | 997.6 hPa | 0 mm | - | - | - |
* Rain latest hour (hover to see other rain measurements)
** Current wind speed in m/s (hover to see current wind gust speed)